| time (UTC) | temp F | wind direction | speed MPH | gust MPH | rain 1hr in | rain 24hr in | rain mn in | humidity % | barometer mb |
| 20260906213055 | 83 | 310 | 9.0 | 17.0 | 0.00 | 0.00 | 0.00 | 16 | 1024.8 |
| 20260906211559 | 82 | 163 | 1.0 | 7.0 | 0.00 | 0.00 | 0.00 | 27 | 1025.0 |
| 20260906210058 | 81 | 162 | 4.0 | 11.0 | 0.00 | 0.00 | 0.00 | 31 | 1025.2 |
| 20260906204557 | 82 | 165 | 2.0 | 7.0 | 0.00 | 0.00 | 0.00 | 30 | 1025.4 |
| 20260906203053 | 83 | 159 | 3.0 | 11.0 | 0.00 | 0.00 | 0.00 | 29 | 1025.5 |
| 20260906201552 | 84 | 59 | 5.0 | 10.0 | 0.00 | 0.00 | 0.00 | 28 | 1025.7 |
| 20260906200055 | 80 | 165 | 2.0 | 7.0 | 0.00 | 0.00 | 0.00 | 30 | 1025.9 |
| 20260906194557 | 79 | 278 | 3.0 | 12.0 | 0.00 | 0.00 | 0.00 | 32 | 1025.9 |
| 20260906193055 | 81 | 130 | 2.0 | 13.0 | 0.00 | 0.00 | 0.00 | 28 | 1026.0 |
| 20260906191550 | 83 | 145 | 3.0 | 14.0 | 0.00 | 0.00 | 0.00 | 30 | 1026.4 |
| 20260906190057 | 83 | 184 | 4.0 | 12.0 | 0.00 | 0.00 | 0.00 | 29 | 1026.7 |
| 20260906184557 | 84 | 302 | 4.0 | 13.0 | 0.00 | 0.00 | 0.00 | 29 | 1026.8 |
| 20260906183054 | 80 | 213 | 2.0 | 7.0 | 0.00 | 0.00 | 0.00 | 30 | 1027.1 |
| 20260906181555 | 83 | 106 | 2.0 | 10.0 | 0.00 | 0.00 | 0.00 | 28 | 1027.2 |
| 20260906180056 | 82 | 314 | 3.0 | 11.0 | 0.00 | 0.00 | 0.00 | 28 | 1027.5 |
| 20260906174554 | 81 | 152 | 1.0 | 9.0 | 0.00 | 0.00 | 0.00 | 29 | 1027.6 |
| 20260906173102 | 81 | 187 | 3.0 | 9.0 | 0.00 | 0.00 | 0.00 | 29 | 1027.7 |
| 20260906171550 | 78 | 284 | 4.0 | 11.0 | 0.00 | 0.00 | 0.00 | 31 | 1027.9 |
| 20260906170056 | 80 | 86 | 3.0 | 11.0 | 0.00 | 0.00 | 0.00 | 30 | 1027.9 |
| 20260906164600 | 78 | 252 | 2.0 | 7.0 | 0.00 | 0.00 | 0.00 | 30 | 1028.0 |
| 20260906163052 | 76 | 253 | 1.0 | 9.0 | 0.00 | 0.00 | 0.00 | 32 | 1028.2 |
| 20260906161558 | 78 | 238 | 2.0 | 7.0 | 0.00 | 0.00 | 0.00 | 30 | 1028.0 |
| 20260906160057 | 79 | 329 | 3.0 | 9.0 | 0.00 | 0.00 | 0.00 | 29 | 1027.9 |
| 20260906154557 | 79 | 250 | 4.0 | 10.0 | 0.00 | 0.00 | 0.00 | 29 | 1027.7 |
| 20260906153046 | 76 | 169 | 6.0 | 11.0 | 0.00 | 0.00 | 0.00 | 31 | 1027.6 |
| 20260906151602 | 76 | 201 | 6.0 | 11.0 | 0.00 | 0.00 | 0.00 | 31 | 1027.6 |
| 20260906150056 | 76 | 148 | 5.0 | 10.0 | 0.00 | 0.00 | 0.00 | 31 | 1027.6 |
| 20260906144550 | 75 | 168 | 1.0 | 6.0 | 0.00 | 0.00 | 0.00 | 32 | 1027.4 |
| 20260906143113 | 73 | 142 | 2.0 | 8.0 | 0.00 | 0.00 | 0.00 | 35 | 1027.7 |
| 20260906141555 | 72 | 257 | 6.0 | 10.0 | 0.00 | 0.00 | 0.00 | 35 | 1027.5 |
| 20260906140051 | 71 | 298 | 6.0 | 8.0 | 0.00 | 0.00 | 0.00 | 36 | 1027.3 |
| 20260906134553 | 71 | 290 | 2.0 | 7.0 | 0.00 | 0.00 | 0.00 | 35 | 1027.2 |
| 20260906133104 | 70 | 304 | 2.0 | 8.0 | 0.00 | 0.00 | 0.00 | 36 | 1027.1 |
| 20260906131559 | 68 | 303 | 8.0 | 13.0 | 0.00 | 0.00 | 0.00 | 37 | 1027.0 |
| 20260906130052 | 67 | 243 | 6.0 | 13.0 | 0.00 | 0.00 | 0.00 | 39 | 1026.7 |
| 20260906124552 | 66 | 279 | 3.0 | 8.0 | 0.00 | 0.00 | 0.00 | 39 | 1026.7 |
| 20260906123056 | 64 | 268 | 2.0 | 4.0 | 0.00 | 0.00 | 0.00 | 41 | 1026.8 |
| 20260906121552 | 65 | 259 | 2.0 | 7.0 | 0.00 | 0.00 | 0.00 | 40 | 1026.8 |
| 20260906120049 | 66 | 0 | 0.0 | 12.0 | 0.00 | 0.00 | 0.00 | 39 | 1026.8 |
| 20260906114549 | 66 | 244 | 5.0 | 11.0 | 0.00 | 0.00 | 0.00 | 38 | 1026.7 |
| 20260906113054 | 66 | 290 | 5.0 | 10.0 | 0.00 | 0.00 | 0.00 | 38 | 1026.8 |
| 20260906111550 | 66 | 256 | 4.0 | 10.0 | 0.00 | 0.00 | 0.00 | 38 | 1026.7 |
| 20260906110047 | 67 | 274 | 4.0 | 9.0 | 0.00 | 0.00 | 0.00 | 37 | 1026.6 |
| 20260906104557 | 67 | 309 | 6.0 | 11.0 | 0.00 | 0.00 | 0.00 | 36 | 1026.6 |
| 20260906103055 | 68 | 240 | 8.0 | 14.0 | 0.00 | 0.00 | 0.00 | 35 | 1026.5 |
| 20260906101553 | 67 | 250 | 9.0 | 15.0 | 0.00 | 0.00 | 0.00 | 35 | 1026.5 |
| 20260906100046 | 68 | 252 | 9.0 | 16.0 | 0.00 | 0.00 | 0.00 | 34 | 1026.6 |
| 20260906094556 | 68 | 259 | 10.0 | 17.0 | 0.00 | 0.00 | 0.00 | 33 | 1026.4 |
| 20260906093113 | 68 | 273 | 10.0 | 18.0 | 0.00 | 0.00 | 0.00 | 34 | 1026.4 |
| 20260906091550 | 68 | 275 | 11.0 | 18.0 | 0.00 | 0.00 | 0.00 | 34 | 1026.4 |
| 20260906090048 | 68 | 277 | 11.0 | 18.0 | 0.00 | 0.00 | 0.00 | 35 | 1026.4 |
| 20260906084555 | 68 | 290 | 11.0 | 16.0 | 0.00 | 0.00 | 0.00 | 34 | 1026.3 |
| 20260906083053 | 68 | 248 | 7.0 | 13.0 | 0.00 | 0.00 | 0.00 | 34 | 1026.4 |
| 20260906081554 | 70 | 288 | 6.0 | 15.0 | 0.00 | 0.00 | 0.00 | 30 | 1026.4 |
| 20260906080100 | 72 | 223 | 11.0 | 18.0 | 0.00 | 0.00 | 0.00 | 27 | 1026.1 |
| 20260906074555 | 72 | 251 | 13.0 | 21.0 | 0.00 | 0.00 | 0.00 | 27 | 1026.2 |
| 20260906073057 | 73 | 213 | 8.0 | 16.0 | 0.00 | 0.00 | 0.00 | 26 | 1026.3 |
| 20260906071559 | 73 | 321 | 11.0 | 22.0 | 0.00 | 0.00 | 0.00 | 26 | 1026.1 |
| 20260906070046 | 72 | 210 | 10.0 | 21.0 | 0.00 | 0.00 | 0.00 | 30 | 1026.3 |
| 20260906064555 | 72 | 232 | 6.0 | 17.0 | 0.00 | 0.00 | 0.00 | 31 | 1026.4 |
| 20260906063056 | 71 | 279 | 2.0 | 11.0 | 0.00 | 0.00 | 0.00 | 33 | 1026.3 |
| 20260906061555 | 69 | 221 | 5.0 | 10.0 | 0.00 | 0.00 | 0.00 | 37 | 1026.6 |
| 20260906060053 | 66 | 202 | 6.0 | 9.0 | 0.00 | 0.00 | 0.00 | 44 | 1026.7 |
| 20260906054600 | 66 | 196 | 6.0 | 11.0 | 0.00 | 0.00 | 0.00 | 44 | 1026.7 |
| 20260906053056 | 65 | 240 | 2.0 | 7.0 | 0.00 | 0.00 | 0.00 | 46 | 1026.8 |
| 20260906051555 | 65 | 0 | 0.0 | 1.0 | 0.00 | 0.00 | 0.00 | 44 | 1026.9 |
| 20260906050131 | 66 | 337 | 1.0 | 3.0 | 0.00 | 0.00 | 0.00 | 44 | 1026.8 |
| 20260906044554 | 70 | 327 | 2.0 | 5.0 | 0.00 | 0.00 | 0.00 | 39 | 1026.7 |
| 20260906043106 | 69 | 195 | 2.0 | 3.0 | 0.00 | 0.00 | 0.00 | 40 | 1026.7 |
| 20260906041553 | 70 | 291 | 3.0 | 9.0 | 0.00 | 0.00 | 0.00 | 39 | 1026.6 |
| 20260906040101 | 70 | 291 | 4.0 | 9.0 | 0.00 | 0.00 | 0.00 | 38 | 1026.6 |
| 20260906034550 | 70 | 281 | 6.0 | 9.0 | 0.00 | 0.00 | 0.00 | 38 | 1026.8 |
| 20260906033056 | 69 | 244 | 3.0 | 5.0 | 0.00 | 0.00 | 0.00 | 41 | 1026.9 |
| 20260906031546 | 70 | 247 | 2.0 | 5.0 | 0.00 | 0.00 | 0.00 | 39 | 1026.8 |
| 20260906030114 | 70 | 234 | 3.0 | 6.0 | 0.00 | 0.00 | 0.00 | 40 | 1026.7 |
| 20260906024555 | 71 | 265 | 2.0 | 4.0 | 0.00 | 0.00 | 0.00 | 38 | 1026.4 |
| 20260906023047 | 71 | 250 | 3.0 | 5.0 | 0.00 | 0.00 | 0.00 | 38 | 1026.3 |
| 20260906021605 | 71 | 236 | 3.0 | 6.0 | 0.00 | 0.00 | 0.00 | 39 | 1026.4 |
| 20260906020100 | 70 | 281 | 4.0 | 8.0 | 0.00 | 0.00 | 0.00 | 39 | 1026.0 |
| 20260906014553 | 70 | 287 | 4.0 | 7.0 | 0.00 | 0.00 | 0.00 | 40 | 1025.9 |
| 20260906013057 | 71 | 327 | 0.0 | 2.0 | 0.00 | 0.00 | 0.00 | 39 | 1025.6 |
| 20260906011554 | 72 | 345 | 1.0 | 2.0 | 0.00 | 0.00 | 0.00 | 38 | 1025.7 |
| 20260906010056 | 75 | 284 | 0.0 | 3.0 | 0.00 | 0.00 | 0.00 | 35 | 1025.5 |
| 20260906004600 | 78 | 0 | 2.0 | 5.0 | 0.00 | 0.00 | 0.00 | 33 | 1025.5 |
| 20260906003107 | 81 | 277 | 1.0 | 6.0 | 0.00 | 0.00 | 0.00 | 30 | 1025.1 |
| 20260906001554 | 81 | 284 | 1.0 | 4.0 | 0.00 | 0.00 | 0.00 | 31 | 1025.0 |
| 20260906000056 | 82 | 207 | 0.0 | 7.0 | 0.00 | 0.00 | 0.00 | 28 | 1024.9 |
| 20260905234556 | 80 | 146 | 5.0 | 9.0 | 0.00 | 0.00 | 0.00 | 30 | 1025.0 |
| 20260905233056 | 81 | 155 | 3.0 | 6.0 | 0.00 | 0.00 | 0.00 | 29 | 1025.1 |
| 20260905231553 | 79 | 248 | 8.0 | 13.0 | 0.00 | 0.00 | 0.00 | 27 | 1025.0 |
| 20260905230058 | 78 | 218 | 8.0 | 17.0 | 0.00 | 0.00 | 0.00 | 31 | 1025.0 |
| 20260905224556 | 78 | 196 | 13.0 | 20.0 | 0.00 | 0.00 | 0.00 | 35 | 1025.2 |
| 20260905223054 | 78 | 216 | 13.0 | 21.0 | 0.00 | 0.00 | 0.00 | 35 | 1025.1 |
| 20260905221602 | 78 | 143 | 13.0 | 21.0 | 0.00 | 0.00 | 0.00 | 37 | 1025.1 |
| 20260905220056 | 78 | 151 | 8.0 | 17.0 | 0.00 | 0.00 | 0.00 | 35 | 1025.3 |
| 20260905214604 | 79 | 164 | 8.0 | 15.0 | 0.00 | 0.00 | 0.00 | 33 | 1025.7 |